Location: Chrome
(40.5765°N, 74.2163°W)
Time: 17:24:04
(UTC+00:00)

SeaSat 1 - Pass Details

Date: 06 December 2019
Orbit: 744 x 748 km, 108.0° (Epoch: 26 January)

Event Time Altitude Azimuth Distance (km) Brightness Sun altitude
Exits shadow 23:13:31 12° 15° (NNE) 2,105 4.5 -19.1°
Drops below altitude 10° 23:14:11 10° 8° (N) 2,267 4.7 -19.2°
Sets 23:17:09 0° 350° (N) 3,195 5.7 -19.8°
